Wind_Speed
19 18 17 17 16 16 16 14 14 15 14 12 11 11 14 15 16 15 15 14 14 14 15 15 15 13 12 12 13 14 16 18 21 23 24 24 23 22 21 20 18 16 14 13
19 18 18 18 17 16 15 14 14 15 14 12 11 11 14 16 17 16 15 15 15 15 14 14 14 13 11 10 11 12 15 18 20 22 23 22 23 24 22 20 18 17 16 14
19 18 19 18 17 16 15 14 15 15 13 12 12 11 14 16 16 16 16 15 14 13 12 12 12 11 10 10 11 11 12 16 20 21 22 23 22 23 22 19 18 17 16 15
20 19 19 18 17 16 15 15 15 14 12 12 12 11 13 15 16 15 15 14 12 11 11 12 11 11 11 10 10 10 11 14 18 20 21 22 23 22 22 21 20 18 17 16
19 19 18 18 17 17 17 17 16 14 13 12 13 11 11 15 15 15 14 13 11 11 11 12 11 11 10 10 9 10 12 13 16 19 20 23 23 22 22 21 20 19 18 18
20 20 19 18 18 18 17 16 15 14 14 13 13 12 10 13 14 14 13 12 11 11 11 12 11 11 9 8 7 8 11 14 17 19 19 22 22 22 22 21 20 20 20 19
19 19 19 18 17 17 16 15 15 14 14 13 15 13 11 13 13 13 13 12 11 11 11 11 11 10 9 7 6 6 9 13 17 19 20 21 22 22 22 21 21 21 20 19
18 18 19 18 16 16 16 16 16 14 14 14 15 13 12 13 12 12 12 11 10 11 10 10 10 9 8 7 5 5 8 11 15 18 20 22 22 22 22 21 20 20 20 20
17 18 19 18 18 18 17 17 16 16 15 14 13 13 13 12 12 12 11 10 10 10 9 8 8 8 7 7 6 4 7 11 14 15 17 19 21 21 21 20 20 20 20 20
18 18 19 19 19 19 19 18 18 17 15 14 13 12 12 12 12 11 11 11 10 9 9 7 6 7 7 7 6 5 5 10 14 15 17 18 20 21 21 20 21 20 20 20
20 19 19 19 19 19 20 20 19 17 17 15 13 12 14 12 12 11 10 10 9 9 7 6 6 6 7 6 5 4 5 8 11 14 17 18 18 18 18 18 19 19 20 19
21 21 20 20 20 20 20 20 20 20 19 17 15 14 16 13 12 11 10 10 8 8 7 6 6 6 7 6 4 4 4 7 9 12 15 16 16 17 17 17 18 19 19 20
24 23 21 20 21 22 22 22 22 21 21 20 17 14 16 15 13 12 11 11 9 9 8 7 6 6 6 5 4 4 5 7 9 12 14 15 16 16 17 18 18 20 20 21
25 25 23 19 19 22 23 23 23 22 22 21 19 16 17 17 15 14 13 12 11 10 9 9 8 7 6 5 5 5 6 8 9 11 13 14 16 17 18 19 19 20 20 21
27 26 25 25 25 24 23 24 24 24 23 23 21 19 19 18 17 16 15 14 13 12 11 10 9 9 8 7 6 7 7 8 9 10 12 14 16 17 18 19 20 20 21 21
29 28 27 26 26 26 26 25 25 25 25 24 23 22 21 21 20 19 17 16 15 14 13 12 11 11 10 9 9 9 8 8 10 11 12 14 15 17 18 19 20 20 21 22
30 30 29 27 28 28 28 26 26 26 25 26 26 24 24 23 22 22 20 18 17 16 15 14 14 13 12 11 11 11 11 11 11 12 13 14 15 16 18 19 20 21 22 23
29 28 29 28 29 31 28 27 27 27 26 26 26 26 26 25 24 23 22 20 19 18 17 16 15 14 13 13 13 13 13 13 13 13 14 15 16 17 18 20 21 22 23 25
28 28 29 29 29 30 30 27 27 27 27 27 27 26 26 25 25 24 23 22 21 20 19 18 17 16 15 14 15 15 15 16 16 16 16 17 18 19 21 21 23 24 25 27
26 26 27 28 28 29 29 27 26 27 28 27 27 27 26 26 26 26 24 24 23 22 20 20 19 19 18 18 18 18 18 17 17 17 18 19 20 22 24 24 25 26 28 29
25 26 26 26 27 27 27 25 25 27 27 26 27 27 27 27 27 26 26 25 23 23 22 21 21 20 20 20 20 20 20 20 20 20 19 20 21 22 23 25 26 27 29 30
24 24 25 25 25 25 23 23 24 25 26 26 27 27 28 27 26 27 27 26 25 25 24 23 22 22 22 22 22 22 22 22 22 22 22 22 23 24 25 26 27 28 29 31
23 23 24 24 24 23 22 22 23 23 25 26 26 27 27 27 27 28 28 28 27 26 25 25 25 25 24 24 24 24 24 25 25 24 24 24 25 26 27 27 29 30 30 32
21 22 22 22 22 22 21 22 22 22 23 25 26 27 28 27 27 27 28 28 28 27 27 27 27 26 26 26 26 26 25 24 24 24 25 26 27 27 28 29 30 31 32 33
18 19 20 20 20 20 20 21 21 22 23 23 24 26 28 28 27 27 28 28 28 28 29 29 28 27 27 27 27 27 27 26 27 28 28 29 29 30 30 31 32 33 33 34
17 17 17 18 18 19 19 19 19 20 21 23 24 26 27 27 27 27 28 28 28 29 29 28 29 29 29 29 29 29 28 28 28 29 30 30 31 31 31 32 32 33 34 34
Wind_Direction
266 263 259 256 252 249 251 253 257 262 269 275 280 283 286 291 296 296 296 299 301 304 308 308 308 305 289 271 262 253 237 228 221 217 214 216 212 212 212 212 211 210 208 207
260 256 252 250 251 250 252 253 255 261 267 273 278 284 288 292 296 296 297 300 302 305 306 307 309 311 300 278 265 254 234 225 221 217 215 214 210 211 209 209 210 210 207 207
252 249 247 248 248 249 251 251 251 256 268 275 282 291 291 291 294 296 297 299 300 307 310 311 312 311 306 292 275 251 231 224 220 215 211 210 208 209 208 207 208 209 207 209
247 247 246 246 245 245 246 248 251 257 263 271 282 286 286 290 296 299 301 301 300 307 314 315 315 313 309 295 276 255 233 222 215 212 208 210 208 208 208 209 209 210 210 210
245 245 245 244 243 242 242 246 250 256 264 272 283 286 288 290 296 300 303 302 301 307 316 318 319 316 312 299 274 250 233 219 211 209 210 208 208 209 209 209 211 211 212 211
242 244 243 242 242 243 245 247 252 260 266 271 274 279 286 288 295 302 303 299 300 306 313 316 321 321 315 306 285 248 232 219 211 210 210 206 208 211 212 212 212 213 214 211
244 244 243 242 242 244 244 244 250 258 263 268 273 276 278 282 293 301 303 298 297 303 307 312 318 324 319 311 290 255 227 216 212 211 209 207 211 212 213 214 212 213 212 212
240 243 243 242 238 242 242 238 238 245 255 266 276 275 275 284 293 300 301 298 297 304 304 306 312 320 325 319 297 249 220 212 208 209 210 210 211 213 213 211 213 214 213 214
232 236 240 240 240 239 240 238 240 247 255 261 269 275 276 281 291 297 298 297 300 304 302 300 306 316 318 323 311 289 229 213 208 207 207 207 209 212 213 212 214 213 214 216
230 233 239 239 241 241 238 239 242 244 251 260 268 276 275 277 286 295 296 295 299 302 302 298 299 308 312 310 303 293 248 218 213 211 210 209 210 213 214 214 214 215 215 216
230 232 238 240 240 241 241 241 243 245 247 253 262 266 268 270 278 287 293 296 299 302 303 301 301 306 308 305 295 272 233 214 214 214 213 209 209 212 214 216 215 215 217 218
231 232 234 240 241 240 240 242 246 248 254 256 256 260 262 263 270 278 284 290 297 300 298 296 297 300 301 295 283 255 221 215 216 217 214 210 210 213 216 217 217 220 222 224
232 233 236 244 248 246 245 246 249 251 254 256 255 259 262 259 262 268 276 281 286 288 289 290 291 293 296 289 273 246 230 227 225 222 217 215 216 219 219 219 221 225 229 231
235 236 235 236 244 248 248 249 250 251 253 255 254 251 256 255 258 264 269 273 277 278 279 282 281 278 280 284 271 254 244 239 232 228 225 222 223 224 223 225 227 231 234 237
240 242 241 240 243 248 250 250 250 251 252 251 251 251 250 251 254 257 262 264 267 269 271 273 274 269 266 268 266 259 253 246 237 232 231 231 229 229 231 233 235 238 241 242
242 244 246 248 250 252 253 251 252 254 254 253 250 249 247 246 250 254 258 260 260 262 264 265 267 266 262 259 258 257 255 251 244 240 240 239 237 237 239 241 243 245 247 250
243 245 247 249 252 253 253 251 252 253 252 250 249 248 247 245 246 250 253 253 254 255 257 260 262 262 260 256 252 254 254 256 254 250 248 248 247 245 245 247 250 252 254 256
244 248 250 251 254 255 255 253 251 251 251 250 248 247 246 243 243 246 248 248 248 251 254 258 259 257 257 256 253 253 255 258 259 256 252 249 250 251 253 255 256 258 259 260
246 249 252 254 256 258 257 254 251 251 250 248 247 245 243 240 240 242 242 243 244 247 251 253 255 255 254 254 255 254 256 259 260 260 261 258 254 254 257 260 262 264 264 265
248 251 253 255 256 258 258 253 250 249 247 244 244 241 240 238 238 238 238 240 242 246 249 250 252 253 254 255 255 256 256 259 259 261 262 263 261 260 261 264 266 266 266 267
250 251 252 255 256 256 255 253 248 246 243 241 240 238 236 235 235 235 236 237 240 244 245 248 250 251 254 256 256 257 259 259 260 262 264 265 264 264 266 268 269 269 269 270
249 251 251 254 255 254 253 250 246 243 240 238 235 235 235 235 235 234 235 237 239 241 242 245 248 250 254 255 256 258 259 260 261 263 264 266 266 267 269 271 272 273 275 275
248 249 251 252 253 253 251 248 244 241 238 236 234 233 231 232 233 232 232 234 236 237 239 242 246 250 253 255 257 257 257 259 261 263 265 267 269 269 271 273 275 276 277 277
249 250 251 250 250 249 248 244 241 238 235 233 232 231 230 231 232 232 232 234 236 237 239 242 245 250 252 254 255 254 255 258 262 264 267 269 271 272 274 275 276 277 278 279
247 248 249 248 247 249 246 243 239 237 232 230 230 229 228 229 230 231 232 234 236 237 239 241 244 248 251 253 254 254 256 259 263 265 268 270 271 272 275 276 278 279 280 281
244 246 244 245 245 246 242 240 238 234 229 227 227 227 227 227 229 231 234 236 237 238 240 243 245 248 250 253 256 257 258 260 263 266 268 270 272 275 277 280 280 280 281 282
Height
5860 5862 5862 5863 5864 5866 5867 5869 5870 5870 5869 5870 5870 5870 5869 5867 5866 5864 5862 5861 5859 5856 5854 5852 5849 5847 5845 5844 5843 5843 5844 5846 5849 5851 5855 5859 5862 5865 5868 5871 5874 5876 5879 5881
5856 5857 5858 5858 5860 5862 5863 5865 5866 5866 5866 5867 5867 5867 5866 5864 5863 5861 5859 5857 5855 5853 5851 5849 5846 5844 5842 5840 5840 5840 5841 5842 5845 5848 5851 5855 5858 5862 5865 5868 5871 5874 5877 5879
5850 5852 5852 5854 5856 5858 5859 5861 5862 5862 5863 5864 5865 5865 5864 5861 5859 5858 5856 5854 5852 5850 5848 5846 5844 5842 5839 5838 5837 5836 5837 5839 5841 5844 5848 5852 5856 5860 5863 5866 5869 5872 5875 5877
5845 5847 5848 5850 5852 5853 5855 5857 5858 5859 5861 5863 5862 5863 5862 5858 5856 5855 5852 5851 5849 5847 5846 5844 5842 5840 5837 5836 5834 5833 5834 5836 5838 5841 5845 5849 5854 5857 5861 5864 5867 5870 5873 5875
5841 5842 5844 5845 5848 5849 5852 5852 5854 5855 5857 5859 5859 5859 5860 5855 5853 5852 5849 5848 5846 5845 5843 5841 5839 5837 5835 5833 5832 5831 5832 5833 5836 5839 5842 5847 5851 5855 5858 5861 5864 5867 5870 5873
5836 5838 5839 5841 5843 5845 5847 5849 5851 5852 5855 5856 5856 5856 5857 5853 5851 5849 5847 5845 5844 5842 5841 5839 5837 5835 5833 5831 5829 5828 5829 5831 5834 5837 5840 5844 5848 5852 5855 5859 5862 5865 5868 5870
5832 5833 5835 5837 5839 5841 5844 5847 5850 5851 5853 5854 5852 5852 5852 5849 5847 5846 5844 5842 5841 5840 5838 5836 5835 5833 5831 5829 5827 5827 5827 5829 5832 5835 5838 5842 5845 5849 5852 5855 5859 5862 5865 5868
5828 5830 5831 5833 5836 5838 5840 5843 5847 5849 5851 5851 5849 5848 5849 5846 5844 5843 5841 5839 5838 5837 5836 5834 5833 5831 5830 5828 5827 5826 5826 5827 5830 5832 5835 5839 5843 5846 5849 5853 5856 5859 5862 5865
5824 5826 5827 5829 5831 5833 5835 5838 5842 5844 5845 5846 5846 5845 5844 5842 5841 5840 5838 5837 5836 5835 5833 5832 5831 5830 5829 5828 5826 5825 5825 5826 5828 5830 5833 5836 5840 5844 5847 5850 5853 5856 5859 5862
5819 5822 5823 5825 5827 5829 5832 5834 5836 5839 5840 5842 5843 5842 5842 5839 5838 5837 5835 5834 5833 5832 5831 5830 5829 5828 5828 5827 5826 5824 5824 5825 5827 5830 5832 5835 5838 5842 5845 5848 5850 5853 5856 5859
5815 5818 5820 5821 5823 5825 5827 5829 5831 5834 5836 5838 5839 5842 5837 5836 5835 5834 5833 5832 5831 5830 5829 5828 5827 5827 5826 5825 5824 5824 5824 5825 5827 5829 5831 5834 5837 5840 5842 5845 5848 5850 5853 5856
5810 5813 5816 5818 5819 5820 5822 5824 5827 5829 5830 5831 5833 5838 5833 5832 5831 5831 5830 5830 5829 5828 5827 5826 5826 5826 5825 5824 5824 5824 5824 5825 5826 5828 5829 5832 5835 5838 5840 5843 5845 5848 5850 5853
5805 5808 5812 5814 5816 5816 5817 5819 5821 5823 5825 5826 5829 5833 5828 5828 5828 5827 5827 5827 5827 5826 5825 5825 5825 5824 5824 5823 5824 5824 5824 5825 5826 5827 5829 5831 5833 5836 5838 5840 5842 5845 5847 5849
5799 5802 5807 5811 5811 5810 5812 5814 5815 5817 5819 5821 5823 5825 5824 5823 5824 5824 5824 5824 5824 5824 5823 5823 5823 5822 5822 5823 5823 5823 5824 5824 5825 5826 5828 5829 5831 5833 5836 5838 5840 5842 5844 5846
5792 5795 5798 5801 5802 5804 5806 5807 5809 5810 5813 5815 5817 5818 5819 5819 5819 5820 5820 5821 5821 5821 5821 5821 5821 5821 5821 5821 5822 5822 5822 5823 5824 5825 5826 5828 5829 5831 5833 5835 5836 5838 5840 5841
5785 5788 5791 5793 5795 5796 5798 5800 5802 5804 5806 5807 5809 5812 5813 5813 5814 5815 5816 5817 5817 5818 5818 5818 5818 5818 5819 5819 5820 5820 5821 5821 5822 5823 5824 5825 5826 5828 5830 5831 5833 5834 5836 5837
5777 5780 5783 5786 5787 5788 5790 5793 5795 5796 5798 5800 5802 5805 5806 5807 5809 5810 5811 5812 5813 5813 5814 5815 5815 5815 5816 5817 5817 5818 5819 5819 5820 5821 5821 5822 5824 5825 5826 5828 5829 5830 5831 5832
5770 5772 5774 5777 5780 5780 5785 5785 5787 5789 5791 5792 5794 5796 5798 5800 5802 5804 5805 5806 5807 5809 5810 5810 5811 5812 5813 5813 5814 5815 5816 5816 5817 5818 5818 5819 5820 5822 5823 5824 5825 5826 5826 5827
5763 5765 5767 5769 5771 5772 5775 5777 5779 5781 5782 5784 5786 5788 5790 5793 5795 5797 5799 5800 5802 5804 5805 5805 5807 5808 5809 5810 5810 5811 5812 5813 5813 5814 5814 5815 5816 5817 5818 5819 5819 5820 5820 5820
5755 5757 5760 5761 5763 5764 5767 5768 5770 5773 5773 5776 5777 5780 5783 5786 5788 5791 5792 5794 5796 5798 5799 5800 5802 5803 5804 5805 5806 5807 5807 5808 5809 5810 5810 5810 5811 5812 5812 5813 5813 5813 5813 5813
5748 5750 5751 5753 5754 5756 5758 5760 5762 5765 5766 5768 5769 5772 5775 5777 5781 5784 5785 5788 5790 5792 5794 5795 5797 5798 5799 5800 5801 5802 5802 5803 5804 5805 5805 5805 5806 5806 5806 5806 5806 5806 5805 5805
5741 5743 5744 5745 5747 5750 5750 5752 5754 5755 5757 5759 5762 5764 5767 5770 5773 5776 5779 5781 5783 5785 5788 5789 5791 5792 5793 5794 5795 5796 5797 5797 5798 5798 5799 5799 5799 5799 5799 5799 5798 5798 5797 5796
5734 5736 5736 5738 5741 5741 5742 5743 5745 5747 5750 5752 5754 5757 5760 5763 5766 5769 5772 5774 5777 5779 5781 5783 5785 5786 5787 5788 5789 5790 5790 5791 5792 5792 5792 5793 5792 5792 5791 5791 5790 5790 5789 5788
5727 5728 5729 5730 5732 5733 5734 5736 5738 5740 5742 5745 5747 5750 5753 5756 5759 5762 5765 5767 5770 5772 5775 5776 5778 5779 5781 5782 5782 5783 5783 5784 5785 5785 5786 5786 5785 5785 5784 5783 5782 5781 5780 5778
5721 5722 5723 5724 5725 5726 5728 5729 5731 5733 5735 5738 5740 5743 5747 5750 5753 5755 5758 5761 5763 5765 5767 5769 5770 5772 5774 5774 5775 5776 5776 5777 5778 5778 5778 5778 5777 5776 5776 5775 5773 5772 5770 5769
5716 5717 5717 5718 5719 5720 5722 5723 5725 5727 5729 5732 5734 5737 5740 5743 5746 5749 5751 5754 5756 5758 5760 5761 5763 5764 5766 5767 5768 5768 5769 5769 5770 5770 5770 5770 5769 5768 5767 5765 5764 5762 5761 5759